Content
SEND FEEDBACK

Daily
Averages
Monthly
Summary
Finland

KOKKOLA, FINLAND


Home > Europe > Finland
Elevation: 82 feet     Latitude: 63 43N     Longitude: 023 08E

WEATHER
 
SELECT A DAY
Number of Records: 249,126;   Date Range: 8/24/98 - 9/15/14
 
SHARE

PRINT THIS DATA

[ ← Previous Day ]
WEATHER ALMANAC - FEBRUARY 13, 2013
[ Next Day → ]
[ °C ]   °F
Weather ElementAverageHighLow
Temperature28.8 °F32 °F (3:50 pm) (11:56 pm)
Dewpoint28.5 °F32 °F (5:20 pm) (7:00 pm)
Humidity98.8 %100 % (1:20 am)93 % (12:50 am)
Barometer29.80 in30.48 in (11:50 am) (7:00 pm)
Wind Speed6.4 mph8.1 mph (8:50 am)
Weather ElementAverage
Visibility5.5 mi
Wind DirectionESE (127.4 °)

Weather ElementTotal
Precipitation---
Heating Degree Days49 (Base 65)
Averaged from 47 records on February 13, 2013
WEATHER CONDITIONS BREAKOUT
WIND DIRECTION BREAKOUT
WEATHER BY HOUR - FEBRUARY 13, 2013
[ °C ]   °F
Local TimeTemperatureDewpointHumidityBarometerVisibilityWind DirectionWind SpeedGust SpeedPrecipitationEventsConditions
12:50 AM24.8 °F23.0 °F93 %30.39 in6.2 miEast (80°)5.8 mphOvercast
1:20 AM24.8 °F24.8 °F100 %30.39 in6.2 miENE (70°)4.6 mphOvercast
1:50 AM24.8 °F24.8 °F100 %30.39 in3.1 miENE (70°)4.6 mphSnowLight Snow Grains
2:20 AM24.8 °F24.8 °F100 %30.39 inENE (60°)4.6 mphSnowLight Snow
2:50 AM24.8 °F24.8 °F100 %30.39 in3.1 miENE (70°)4.6 mphSnowLight Snow
3:20 AM26.6 °F26.6 °F100 %30.39 in6.2 miENE (70°)5.8 mphSnowLight Snow
3:50 AM26.6 °F26.6 °F100 %30.39 in6.2 miENE (70°)5.8 mphSnowLight Snow
4:20 AM26.6 °F26.6 °F100 %30.39 in6.2 miEast (90°)4.6 mphSnowLight Snow
4:50 AM26.6 °F26.6 °F100 %30.39 in6.2 miEast (90°)5.8 mphSnowLight Snow
5:20 AM26.6 °F26.6 °F100 %30.39 in6.2 miEast (100°)5.8 mphSnowLight Snow Showers
5:50 AM26.6 °F26.6 °F100 %30.39 in6.2 miESE (110°)5.8 mphSnowLight Snow
6:20 AM28.4 °F28.4 °F100 %30.39 in6.2 miESE (120°)5.8 mphSnowLight Snow
6:50 AM28.4 °F26.6 °F93 %30.39 in6.2 miSE (130°)6.9 mphMostly Cloudy
7:20 AM28.4 °F28.4 °F100 %30.39 in6.2 miSE (130°)6.9 mphSnowLight Snow Showers
7:50 AM28.4 °F26.6 °F93 %30.42 in6.2 miSE (130°)6.9 mphSnowLight Snow Showers
8:20 AM28.4 °F28.4 °F100 %30.42 in3.7 miSE (140°)6.9 mphSnowLight Snow
8:50 AM28.4 °F28.4 °F100 %30.42 in3.7 miESE (120°)8.1 mphSnowLight Snow
9:20 AM28.4 °F28.4 °F100 %30.42 in5.0 miSE (130°)8.1 mphSnowLight Snow
9:50 AM28.4 °F28.4 °F100 %30.42 in6.2 miSE (130°)8.1 mphSnowLight Snow
10:20 AM30.2 °F28.4 °F93 %30.45 in6.2 miSE (140°)8.1 mphSnowLight Snow
10:50 AM30.2 °F30.2 °F100 %30.45 in6.2 miSE (140°)8.1 mphSnowLight Snow
11:20 AM30.2 °F28.4 °F93 %30.45 in6.2 miSE (140°)8.1 mphSnowLight Snow
11:50 AM30.2 °F30.2 °F100 %30.48 in4.3 miSE (140°)6.9 mphSnowLight Snow
12:20 PM30.2 °F30.2 °F100 %30.48 in5.0 miSE (140°)6.9 mphSnowLight Snow
12:50 PM30.2 °F30.2 °F100 %30.48 in6.2 miSE (140°)8.1 mphMostly Cloudy
1:20 PM30.2 °F30.2 °F100 %30.48 in6.2 miSE (140°)8.1 mphMostly Cloudy
1:50 PM30.2 °F30.2 °F100 %30.48 in6.2 miSE (140°)6.9 mphMostly Cloudy
2:20 PM30.2 °F30.2 °F100 %30.48 in6.2 miSE (140°)8.1 mphOvercast
2:50 PM30.2 °F30.2 °F100 %30.48 in6.2 miSE (140°)6.9 mphOvercast
3:20 PM30.2 °F30.2 °F100 %30.48 in6.2 miSE (140°)6.9 mphOvercast
3:50 PM32.0 °F30.2 °F93 %30.48 in6.2 miSE (140°)8.1 mphMostly Cloudy
4:20 PM32.0 °F30.2 °F93 %30.48 in6.2 miSSE (150°)6.9 mphOvercast
4:50 PM32.0 °F30.2 °F93 %30.48 in6.2 miSSE (150°)6.9 mphOvercast
5:20 PM32.0 °F32.0 °F100 %30.48 in6.2 miSE (140°)6.9 mphOvercast
5:50 PM32.0 °F32.0 °F100 %30.48 in6.2 miSE (140°)6.9 mphOvercast
6:20 PM32.0 °F32.0 °F100 %30.48 in6.2 miSE (140°)5.8 mphOvercast
6:50 PM32.0 °F32.0 °F100 %30.48 in6.2 miSSE (150°)6.9 mphMostly Cloudy
7:20 PM32.0 °F32.0 °F100 %30.48 in6.2 miSSE (150°)6.9 mphMostly Cloudy
7:50 PM32.0 °F32.0 °F100 %30.48 in6.2 miSE (140°)6.9 mphMostly Cloudy
8:20 PM32.0 °F32.0 °F100 %30.48 in6.2 miSE (140°)5.8 mphOvercast
8:50 PM32.0 °F32.0 °F100 %30.48 in6.2 miSSE (150°)5.8 mphSnowLight Snow
9:20 PM32.0 °F32.0 °F100 %30.48 in3.1 miSE (140°)5.8 mphSnowLight Snow
9:50 PM32.0 °F32.0 °F100 %30.48 in3.1 miSE (140°)5.8 mphSnowLight Snow
10:20 PM32.0 °F32.0 °F100 %30.48 in3.7 miSSE (150°)5.8 mphSnowLight Snow
10:50 PM32.0 °F32.0 °F100 %30.48 inSSE (150°)4.6 mphSnowLight Snow Showers
11:20 PM32.0 °F32.0 °F100 %30.48 in3.7 miSSE (160°)3.5 mphSnowLight Snow Showers
11:56 PM0.0 °F0.0 °F1.7 miSSW (210°)4.6 mph
Hourly data recorded from EFKK, located miles away from Kokkola, Finland







STORIES FROM OUR PARTNERS